Weather in Madison

United States     43°04′33″N   89°22′53″W
temp.,
°C
wind,
m/s
gust,
m/s
humid.,
%
clouds,
%
prec.,
mm/h
press.,
hPa
HPBL,
m
26 may, thu
thu2601:00+17ssw3999100 4.4 1006329
04:00+16sw4898100 0.0 1007335
07:00+16sw2598100 0.1 1008240
10:00+18nw129099 0.1 1008482
13:00+20nw118494 1.6 1008460
16:00+21n3381100 4.8 1007519
19:00+18nne4890100 9.3 1007333
22:00+15nne5109733 0.3 1008368
27 may, fri
fri2701:00+14nne5898100 0.4 1007597
04:00+13n5897100 0.4 1008469
07:00+11nne4996100 0.6 1010443
10:00+12n588948 0.0 1011555
13:00+17n676418 0.1 10101348
16:00+17nne676758 0.0 10111252
19:00+15nne35770 0.0 1011345
22:00+11ssw22870 0.0 101212
28 may, sat
sat2801:00+10wsw339388 0.0 101245
04:00+10wsw22935 0.0 101319
07:00+12ssw238835 0.0 101287
10:00+17s567297 0.0 1012679
13:00+20s676320 0.0 10111211
16:00+21s61067100 0.0 10081158
19:00+18s41082100 0.2 1007511
22:00+16s5138864 0.1 1008353
29 may, sun
sun2901:00+16s51494100 1.3 1006464
04:00+16sse51595100 0.8 1005501
07:00+17sse71593100 0.8 1005542
10:00+21s61083100 0.5 1005798
13:00+25s81276100 0.5 10021188
16:00+27ssw81374100 0.0 10011205
19:00+25ssw8168125 0.0 10021088
22:00+24ssw7188441 0.0 1004926
30 may, mon
mon3001:00+23ssw7197460 0.0 1005783
04:00+21ssw617785 0.0 1007614
07:00+20ssw71883100 0.0 1009574
10:00+24ssw7177344 0.0 1010726
13:00+28ssw8146613 0.0 1011956
16:00+29ssw8136997 0.0 10111024
19:00+26ssw71478100 0.0 1012709
22:00+24ssw6168311 0.0 1014580